DW0664 Weather Reports


Display with metric or nautical units.
time (UTC)temp
F
wind
direction
speed
MPH
gust
MPH
rain 1hr
in
rain 24hr
in
rain mn
in
humidity
%
barometer
mb
20210625074005 80 138 0.0 0.0 0.00 0.00 0.00 87 1012.8
20210625073505 80 139 0.0 0.0 0.00 0.00 0.00 87 1012.8
20210625073015 80 139 0.0 0.0 0.00 0.00 0.00 87 1012.9
20210625072505 80 140 0.0 0.0 0.00 0.00 0.00 87 1012.8
20210625072007 80 140 0.0 0.0 0.00 0.00 0.00 87 1012.8
20210625071506 80 140 0.0 0.0 0.00 0.00 0.00 87 1012.8
20210625071003 80 134 0.0 0.0 0.00 0.00 0.00 87 1012.8
20210625070503 80 134 0.0 0.0 0.00 0.00 0.00 87 1012.8
20210625070005 80 142 0.0 0.0 0.00 0.00 0.00 86 1013.0
20210625065502 80 142 0.0 0.0 0.00 0.00 0.00 86 1013.0
20210625065002 80 142 0.0 0.0 0.00 0.00 0.00 86 1013.1
20210625064503 80 98 0.0 0.0 0.00 0.00 0.00 86 1013.0
20210625064008 80 158 0.0 0.0 0.00 0.00 0.00 86 1012.9
20210625063608 80 158 0.0 0.0 0.00 0.00 0.00 86 1012.9
20210625063128 80 173 0.0 0.0 0.00 0.00 0.00 86 1013.0
20210625062611 80 177 0.0 0.0 0.00 0.00 0.00 86 1013.0
20210625062107 81 201 0.0 0.0 0.00 0.00 0.00 85 1013.1
20210625061638 81 201 0.0 0.0 0.00 0.00 0.00 85 1013.2
20210625061058 81 117 0.0 0.0 0.00 0.00 0.00 85 1013.2
20210625060557 81 103 0.0 0.0 0.00 0.00 0.00 85 1013.2
20210625060150 81 107 0.0 0.0 0.00 0.00 0.00 85 1013.2
20210625055058 81 141 0.0 0.0 0.00 0.00 0.00 84 1013.2
20210625054641 81 140 0.0 0.0 0.00 0.00 0.00 84 1013.1
20210625054054 81 140 0.0 0.0 0.00 0.00 0.00 84 1013.1
20210625053556 82 140 0.0 0.0 0.00 0.00 0.00 84 1013.1
20210625053149 82 175 0.0 0.0 0.00 0.00 0.00 84 1013.2
20210625052557 82 179 0.0 0.0 0.00 0.00 0.00 83 1013.1
20210625052120 82 148 0.0 0.0 0.00 0.00 0.00 83 1013.2
20210625051625 82 197 0.0 0.0 0.00 0.00 0.00 83 1013.1
20210625051052 82 161 0.0 0.0 0.00 0.00 0.00 83 1013.0
20210625050553 82 109 0.0 0.0 0.00 0.00 0.00 83 1013.1
20210625050214 83 155 0.0 0.0 0.00 0.00 0.00 83 1013.1
20210625045106 83 140 0.0 0.0 0.00 0.00 0.00 83 1013.1
20210625044635 83 111 0.0 0.0 0.00 0.00 0.00 83 1013.2
20210625044052 83 111 0.0 0.0 0.00 0.00 0.00 82 1013.3
20210625043603 83 172 0.0 0.0 0.00 0.00 0.00 82 1013.1
20210625043159 83 184 0.0 0.0 0.00 0.00 0.00 82 1013.0
20210625042614 83 191 0.0 0.0 0.00 0.00 0.00 81 1013.0
20210625042057 84 152 0.0 0.0 0.00 0.00 0.00 81 1013.0
20210625041651 84 161 0.0 0.0 0.00 0.00 0.00 81 1013.0
20210625041110 84 186 0.0 0.0 0.00 0.00 0.00 81 1013.0
20210625040613 84 208 0.0 0.0 0.00 0.00 0.00 81 1012.9
20210625040127 84 155 0.0 0.0 0.00 0.00 0.00 80 1012.8
20210625035053 84 169 0.0 0.0 0.00 0.00 0.00 80 1012.6
20210625034646 84 188 0.0 0.0 0.00 0.00 0.00 80 1012.5
20210625034102 85 106 0.0 0.0 0.00 0.00 0.00 80 1012.4
20210625033640 85 190 0.0 0.0 0.00 0.00 0.00 80 1012.3
20210625033131 85 130 0.0 0.0 0.00 0.00 0.00 80 1012.3
20210625032623 85 117 0.0 0.0 0.00 0.00 0.00 79 1012.2
20210625032059 85 119 0.0 0.0 0.00 0.00 0.00 79 1012.1
20210625031707 85 141 0.0 0.0 0.00 0.00 0.00 79 1011.9
20210625031050 85 142 0.0 0.0 0.00 0.00 0.00 79 1011.9
20210625030551 85 111 0.0 0.0 0.00 0.00 0.00 79 1011.8
20210625030118 86 132 0.0 0.0 0.00 0.00 0.00 79 1011.9
20210625025142 86 168 0.0 0.0 0.00 0.00 0.00 79 1011.8
20210625024654 86 140 0.0 0.0 0.00 0.00 0.00 79 1011.8
20210625024050 86 140 0.0 0.0 0.00 0.00 0.00 78 1011.8
20210625023551 86 135 0.0 0.0 0.00 0.00 0.00 78 1011.7
20210625023143 86 123 0.0 0.0 0.00 0.00 0.00 78 1011.6
20210625022550 87 97 0.0 0.0 0.00 0.00 0.00 78 1011.5
20210625022058 87 150 0.0 0.0 0.00 0.00 0.00 78 1011.4
20210625021644 87 150 0.0 0.0 0.00 0.00 0.00 78 1011.4
20210625021049 87 159 0.0 0.0 0.00 0.00 0.00 77 1011.4
20210625020549 87 159 0.0 0.0 0.00 0.00 0.00 77 1011.4
20210625020230 88 170 0.0 0.0 0.00 0.00 0.00 76 1011.4
20210625015049 88 170 0.0 0.0 0.00 0.00 0.00 76 1011.3
20210625014706 88 170 0.0 0.0 0.00 0.00 0.00 76 1011.4
20210625014049 88 138 0.0 0.0 0.00 0.00 0.00 75 1011.3
20210625013548 88 129 0.0 0.0 0.00 0.00 0.00 75 1011.4
20210625013105 88 164 0.0 0.0 0.00 0.00 0.00 75 1011.4
20210625012549 89 164 0.0 0.0 0.00 0.00 0.00 74 1011.3
20210625012105 89 166 0.0 0.0 0.00 0.00 0.00 73 1011.3
20210625011658 89 119 0.0 0.0 0.00 0.00 0.00 73 1011.3
20210625011056 89 101 0.0 0.0 0.00 0.00 0.00 73 1011.2
20210625010609 89 130 0.0 0.0 0.00 0.00 0.00 72 1011.1
20210625010117 90 113 0.0 0.0 0.00 0.00 0.00 71 1011.2
20210625005048 90 159 0.0 0.0 0.00 0.00 0.00 70 1011.2
20210625004645 90 148 0.0 0.0 0.00 0.00 0.00 70 1011.2
20210625004047 90 141 0.0 0.0 0.00 0.00 0.00 69 1011.2
20210625003547 90 107 0.0 0.0 0.00 0.00 0.00 69 1011.2
20210625003119 90 149 0.0 0.0 0.00 0.00 0.00 69 1011.2
20210625002555 90 111 0.0 0.0 0.00 0.00 0.00 68 1011.1
20210625002047 91 126 0.0 0.0 0.00 0.00 0.00 69 1011.0
20210625001605 91 109 0.0 0.0 0.00 0.00 0.00 69 1011.1
20210625001046 91 150 0.0 0.0 0.00 0.00 0.00 69 1011.1
20210625000547 91 144 0.0 0.0 0.00 0.00 0.00 69 1011.0
20210625000148 92 158 0.0 0.0 0.00 0.00 0.00 69 1010.9
20210624235048 92 127 0.0 0.0 0.00 0.00 0.00 68 1010.9
20210624234623 92 149 0.0 0.0 0.00 0.00 0.00 68 1010.8
20210624234047 92 166 0.0 0.0 0.00 0.00 0.00 68 1010.7
20210624233608 93 94 0.0 0.0 0.00 0.00 0.00 68 1010.7
20210624233056 93 106 0.0 0.0 0.00 0.00 0.00 67 1010.7
20210624232546 93 113 0.0 0.0 0.00 0.00 0.00 67 1010.7
20210624232057 93 137 0.0 0.0 0.00 0.00 0.00 67 1010.6
20210624231552 93 136 0.0 0.0 0.00 0.00 0.00 67 1010.6
20210624231051 93 128 0.0 0.0 0.00 0.00 0.00 68 1010.6
20210624230545 93 119 0.0 0.0 0.00 0.00 0.00 66 1010.7
20210624230130 93 123 0.0 0.0 0.00 0.00 0.00 66 1010.5
20210624225044 94 105 0.0 0.0 0.00 0.00 0.00 67 1010.6
20210624224621 94 154 0.0 0.0 0.00 0.00 0.00 66 1010.7
20210624224044 94 132 0.0 0.0 0.00 0.00 0.00 66 1010.7
20210624223544 94 143 0.0 0.0 0.00 0.00 0.00 64 1010.7
20210624223143 94 143 0.0 0.0 0.00 0.00 0.00 64 1010.8
20210624222542 94 143 0.0 0.0 0.00 0.00 0.00 64 1010.9
20210624222048 94 143 0.0 0.0 0.00 0.00 0.00 64 1011.0
20210624221612 94 150 0.0 0.0 0.00 0.00 0.00 63 1011.0
20210624221107 94 151 0.0 0.0 0.00 0.00 0.00 63 1011.0
20210624220541 95 146 0.0 0.0 0.00 0.00 0.00 65 1011.0
20210624220104 95 134 0.0 0.0 0.00 0.00 0.00 67 1011.0
20210624215042 95 127 0.0 0.0 0.00 0.00 0.00 65 1011.1
20210624214646 95 132 0.0 0.0 0.00 0.00 0.00 66 1011.2
20210624214041 94 132 0.0 0.0 0.00 0.00 0.00 68 1011.3
20210624213549 94 143 0.0 0.0 0.00 0.00 0.00 67 1011.3
20210624213127 94 143 0.0 0.0 0.00 0.00 0.00 65 1011.4
20210624212611 95 140 0.0 0.0 0.00 0.00 0.00 65 1011.5
20210624212038 95 150 0.0 0.0 0.00 0.00 0.00 66 1011.4
20210624211607 94 145 0.0 0.0 0.00 0.00 0.00 66 1011.5
20210624211039 94 146 0.0 0.0 0.00 0.00 0.00 65 1011.7
20210624210542 94 130 0.0 0.0 0.00 0.00 0.00 66 1011.7
20210624210036 94 130 0.0 0.0 0.00 0.00 0.00 65 1011.8
20210624205052 94 124 0.0 0.0 0.00 0.00 0.00 65 1011.7
20210624204607 95 148 0.0 0.0 0.00 0.00 0.00 65 1011.8
20210624204035 95 149 0.0 0.0 0.00 0.00 0.00 65 1011.9
20210624203543 96 132 0.0 0.0 0.00 0.00 0.00 63 1011.9
20210624203058 96 98 0.0 0.0 0.00 0.00 0.00 66 1011.9
20210624202542 95 97 0.0 0.0 0.00 0.00 0.00 65 1012.0
20210624202033 95 145 0.0 0.0 0.00 0.00 0.00 63 1012.1
20210624201553 96 148 0.0 0.0 0.00 0.00 0.00 66 1012.0
20210624201040 96 119 0.0 0.0 0.00 0.00 0.00 64 1012.1
20210624200610 96 119 0.0 0.0 0.00 0.00 0.00 65 1012.2
20210624200035 95 184 0.0 0.0 0.00 0.00 0.00 63 1012.2
20210624195031 95 186 0.0 0.0 0.00 0.00 0.00 67 1012.3
20210624194544 95 115 0.0 0.0 0.00 0.00 0.00 66 1012.3
20210624194032 95 129 0.0 0.0 0.00 0.00 0.00 66 1012.5
20210624193531 95 161 0.0 0.0 0.00 0.00 0.00 63 1012.5
20210624193119 95 172 0.0 0.0 0.00 0.00 0.00 66 1012.6
20210624192527 95 132 0.0 0.0 0.00 0.00 0.00 69 1012.6
20210624192033 95 132 0.0 0.0 0.00 0.00 0.00 66 1012.6
20210624191538 95 132 0.0 0.0 0.00 0.00 0.00 66 1012.7
20210624191024 94 122 0.0 0.0 0.00 0.00 0.00 66 1012.8
20210624190529 94 103 0.0 0.0 0.00 0.00 0.00 68 1012.7
20210624190031 94 163 0.0 0.0 0.00 0.00 0.00 70 1012.8
20210624185027 93 210 0.0 0.0 0.00 0.00 0.00 69 1013.1
20210624184532 93 136 0.0 0.0 0.00 0.00 0.00 70 1013.0
20210624184021 94 132 0.0 0.0 0.00 0.00 0.00 68 1013.1
20210624183521 94 131 0.0 0.0 0.00 0.00 0.00 69 1013.2
20210624183029 93 131 0.0 0.0 0.00 0.00 0.00 70 1013.2
20210624182517 93 130 0.0 0.0 0.00 0.00 0.00 70 1013.2
20210624182016 93 121 0.0 0.0 0.00 0.00 0.00 69 1013.4
20210624181520 93 121 0.0 0.0 0.00 0.00 0.00 69 1013.6
20210624181013 93 144 0.0 0.0 0.00 0.00 0.00 69 1013.6
20210624180521 93 169 0.0 0.0 0.00 0.00 0.00 71 1013.6
20210624180019 92 233 0.0 0.0 0.00 0.00 0.00 72 1013.7
20210624175012 92 165 0.0 0.0 0.00 0.00 0.00 70 1013.8
20210624174519 92 155 0.0 0.0 0.00 0.00 0.00 72 1013.8
20210624174010 92 155 0.0 0.0 0.00 0.00 0.00 69 1013.9
20210624173530 92 161 0.0 0.0 0.00 0.00 0.00 70 1013.9
20210624173031 92 130 0.0 0.0 0.00 0.00 0.00 70 1013.9
20210624172510 92 93 0.0 0.0 0.00 0.00 0.00 70 1013.9
20210624172031 92 163 0.0 0.0 0.00 0.00 0.00 72 1014.0
20210624171543 92 163 0.0 0.0 0.00 0.00 0.00 71 1014.1
20210624171013 92 158 0.0 0.0 0.00 0.00 0.00 71 1014.0
20210624170515 92 159 0.0 0.0 0.00 0.00 0.00 72 1014.1
20210624170024 91 159 0.0 0.0 0.00 0.00 0.00 74 1014.2
20210624165004 91 146 0.0 0.0 0.00 0.00 0.00 73 1014.3
20210624164507 91 145 0.0 0.0 0.00 0.00 0.00 73 1014.3
20210624164014 90 145 0.0 0.0 0.00 0.00 0.00 76 1014.2
20210624163502 90 144 0.0 0.0 0.00 0.00 0.00 75 1014.2
20210624163238 90 144 0.0 0.0 0.00 0.00 0.00 76 1014.3
20210624162603 89 146 0.0 0.0 0.00 0.00 0.00 78 1014.5
20210624162059 89 146 0.0 0.0 0.00 0.00 0.00 77 1014.4
20210624161657 89 126 0.0 0.0 0.00 0.00 0.00 76 1014.5
20210624161057 89 106 0.0 0.0 0.00 0.00 0.00 77 1014.6
20210624160632 89 205 0.0 0.0 0.00 0.00 0.00 78 1014.7
20210624160126 88 205 0.0 0.0 0.00 0.00 0.00 79 1014.7
20210624155056 88 213 0.0 0.0 0.00 0.00 0.00 79 1014.6
20210624154611 88 214 0.0 0.0 0.00 0.00 0.00 79 1014.6
20210624154053 88 102 0.0 0.0 0.00 0.00 0.00 80 1014.6
20210624153558 87 119 0.0 0.0 0.00 0.00 0.00 80 1014.6
20210624153153 87 163 0.0 0.0 0.00 0.00 0.00 80 1014.7
20210624152552 87 163 0.0 0.0 0.00 0.00 0.00 80 1014.8
20210624152052 87 167 0.0 0.0 0.00 0.00 0.00 79 1014.8
20210624151625 87 146 0.0 0.0 0.00 0.00 0.00 80 1014.8
20210624151053 87 148 0.0 0.0 0.00 0.00 0.00 80 1014.8
20210624150600 86 119 0.0 0.0 0.00 0.00 0.00 82 1014.9
20210624150106 86 136 0.0 0.0 0.00 0.00 0.00 83 1014.9
20210624145042 85 97 0.0 0.0 0.00 0.00 0.00 82 1015.1
20210624144548 85 90 0.0 0.0 0.00 0.00 0.00 83 1015.2